Starlink 32557

operational
NORAD ID: 62127 Int'l Des: 2024-222 Owner: SPXS Country: US Constellation: starlink
LEOCIRCULAR

Über Starlink 32557

Beschreibung wird geladen...

Live-Position

3D-Globus wird geladen...

Nächste Überflüge

Höhenverlauf

Altitude vs Time

uPlot chart will show altitude changes over time

Zweizeiliger Elementsatz

1 62127U 24222P 25350.41222535 .00026725 00000-0 97667-3 0 9999
2 62127 43.0014 235.8879 0001696 260.6804 99.3856 15.27596223 60189
Epoch: 16. Dez. 2025 • Age: 24 hours

Aktueller Status

Höhe 484.4 km
Geschwindigkeit 7.63 km/s
Subsatellitenpunkt 30.95°N, 134.11°E
Startdatum 27. Nov. 2024
Alter 1 years
Typ internet

Technische Details

Klassifizierung Payload
Masse 730.00 kg
Trockenmasse 700.00 kg
Gesamtmasse 730.00 kg
Länge 0.30 m
Durchmesser 4.10 m
Spannweite 29.00 m
Form Box + pan
Hersteller SPXS
Bus-Typ Starlink V2M
Phasenstatus In Orbit
Besitzer/Staat SPXS/US

Große Konstellationen

Loading constellations...